Station Historical Data
Daily Summary for September 29, 2017 Units:  Metric    English   Both
« Previous Day
Next Day »
Daily Weekly Monthly Yearly Custom
  High: Low: Average:
Temperature: 29.9 °C 17.8 °C 23.4 °C
Dew Point: 20.2 °C 16.2 °C 18.1 °C
Humidity: 91% 51% 73%
Wind Speed: 16.1km/h 1.6km/h 8km/h
Wind Gust: 16.1km/h - -
Wind- - SW
Pressure: 1017.8 hPa 1014.4 hPa -
Precipitation: 0 mm    
Historical Graphs
 
 
Tabular Data for September 29, 2017
Time Temperature Dew Point Pressure Wind Wind Speed Wind Gust Humidity Rainfall Rate (Hourly) Conditions
00:00 22.4 °C 19.2 °C 1014.4 hPa NW 9.7 km/h 9.7 km/h 82% 0 mm CLR
00:05 22.4 °C 19.2 °C 1014.4 hPa NW 9.7 km/h 9.7 km/h 82% 0 mm CLR
00:10 22.3 °C 19.1 °C 1014.4 hPa NW 9.7 km/h 9.7 km/h 82% 0 mm CLR
00:15 22.4 °C 19.2 °C 1014.4 hPa NW 9.7 km/h 9.7 km/h 82% 0 mm CLR
00:20 22.3 °C 19.1 °C 1014.4 hPa NW 9.7 km/h 9.7 km/h 82% 0 mm CLR
00:25 22.3 °C 19.1 °C 1014.4 hPa NW 9.7 km/h 9.7 km/h 82% 0 mm CLR
00:30 22.2 °C 19 °C 1014.4 hPa NW 9.7 km/h 9.7 km/h 82% 0 mm CLR
00:40 22.1 °C 18.9 °C 1014.4 hPa NW 9.7 km/h 9.7 km/h 82% 0 mm CLR
00:45 22 °C 19 °C 1014.4 hPa NW 9.7 km/h 9.7 km/h 83% 0 mm CLR
00:50 22 °C 19 °C 1014.4 hPa NW 9.7 km/h 9.7 km/h 83% 0 mm CLR
00:55 21.9 °C 18.9 °C 1014.4 hPa NW 9.7 km/h 9.7 km/h 83% 0 mm CLR
01:00 21.9 °C 18.9 °C 1014.4 hPa NW 9.7 km/h 9.7 km/h 83% 0 mm CLR
01:05 21.9 °C 18.8 °C 1014.4 hPa NW 9.7 km/h 9.7 km/h 83% 0 mm CLR
01:10 21.8 °C 18.8 °C 1014.4 hPa NW 9.7 km/h 9.7 km/h 83% 0 mm CLR
01:15 21.8 °C 18.8 °C 1014.4 hPa NW 8 km/h 9.7 km/h 83% 0 mm CLR
01:20 21.8 °C 18.8 °C 1014.4 hPa NW 8 km/h 8 km/h 83% 0 mm CLR
01:25 21.7 °C 18.7 °C 1014.4 hPa NW 8 km/h 8 km/h 83% 0 mm CLR
01:30 21.7 °C 18.7 °C 1014.4 hPa NW 8 km/h 8 km/h 83% 0 mm CLR
01:35 21.7 °C 18.7 °C 1014.4 hPa NW 8 km/h 8 km/h 83% 0 mm CLR
01:40 21.6 °C 18.6 °C 1014.4 hPa NW 8 km/h 8 km/h 83% 0 mm CLR
01:45 21.6 °C 18.6 °C 1014.4 hPa NW 8 km/h 8 km/h 83% 0 mm CLR
01:50 21.5 °C 18.4 °C 1014.4 hPa NW 8 km/h 8 km/h 83% 0 mm CLR
01:55 21.4 °C 18.4 °C 1014.4 hPa NW 8 km/h 8 km/h 83% 0 mm CLR
02:00 21.2 °C 18.4 °C 1014.4 hPa NW 8 km/h 8 km/h 84% 0 mm CLR
02:05 21.2 °C 18.3 °C 1014.4 hPa NW 8 km/h 8 km/h 84% 0 mm CLR
02:10 21.1 °C 18.2 °C 1014.8 hPa NW 8 km/h 8 km/h 84% 0 mm CLR
02:15 21 °C 18.2 °C 1014.8 hPa WNW 8 km/h 8 km/h 84% 0 mm CLR
02:20 20.9 °C 18.1 °C 1014.8 hPa West 8 km/h 8 km/h 84% 0 mm CLR
02:25 20.9 °C 18.1 °C 1014.8 hPa West 8 km/h 8 km/h 84% 0 mm CLR
02:30 20.8 °C 18.1 °C 1014.8 hPa West 8 km/h 8 km/h 84% 0 mm CLR
02:35 20.8 °C 18 °C 1014.8 hPa West 8 km/h 8 km/h 84% 0 mm CLR
02:40 20.7 °C 17.9 °C 1014.8 hPa West 8 km/h 8 km/h 84% 0 mm CLR
02:45 20.7 °C 17.8 °C 1014.8 hPa West 8 km/h 8 km/h 84% 0 mm CLR
02:50 20.6 °C 17.6 °C 1014.4 hPa West 8 km/h 8 km/h 83% 0 mm CLR
02:55 20.6 °C 17.8 °C 1014.8 hPa West 8 km/h 8 km/h 84% 0 mm CLR
03:00 20.5 °C 17.7 °C 1014.4 hPa West 8 km/h 8 km/h 84% 0 mm CLR
03:05 20.4 °C 17.8 °C 1014.4 hPa West 8 km/h 8 km/h 85% 0 mm CLR
03:10 20.2 °C 17.6 °C 1014.4 hPa West 8 km/h 8 km/h 85% 0 mm CLR
03:15 20.1 °C 17.7 °C 1014.4 hPa West 8 km/h 8 km/h 86% 0 mm CLR
03:20 19.9 °C 17.5 °C 1014.4 hPa West 8 km/h 8 km/h 86% 0 mm CLR
03:25 19.8 °C 17.4 °C 1014.4 hPa West 8 km/h 8 km/h 86% 0 mm CLR
03:30 19.7 °C 17.4 °C 1014.4 hPa West 8 km/h 8 km/h 87% 0 mm CLR
03:35 19.6 °C 17.4 °C 1014.4 hPa West 8 km/h 8 km/h 87% 0 mm CLR
03:40 19.5 °C 17.3 °C 1014.4 hPa West 8 km/h 8 km/h 87% 0 mm CLR
03:45 19.4 °C 17.2 °C 1014.4 hPa West 8 km/h 8 km/h 87% 0 mm CLR
03:50 19.3 °C 17.1 °C 1014.4 hPa West 8 km/h 8 km/h 87% 0 mm CLR
03:55 19.3 °C 17.1 °C 1014.4 hPa West 8 km/h 8 km/h 87% 0 mm CLR
04:00 19.2 °C 17.2 °C 1014.4 hPa West 8 km/h 8 km/h 88% 0 mm CLR
04:05 19.2 °C 17.2 °C 1014.4 hPa West 8 km/h 8 km/h 88% 0 mm CLR
04:10 19.2 °C 17.1 °C 1014.4 hPa West 8 km/h 8 km/h 88% 0 mm CLR
04:15 19.1 °C 17.1 °C 1014.4 hPa West 9.7 km/h 9.7 km/h 88% 0 mm CLR
04:20 19.1 °C 17.1 °C 1014.4 hPa West 9.7 km/h 9.7 km/h 88% 0 mm CLR
04:25 19 °C 16.9 °C 1014.4 hPa West 9.7 km/h 9.7 km/h 88% 0 mm CLR
04:30 19 °C 16.9 °C 1014.4 hPa West 9.7 km/h 9.7 km/h 88% 0 mm CLR
04:35 18.9 °C 16.9 °C 1014.4 hPa West 9.7 km/h 9.7 km/h 88% 0 mm CLR
04:40 18.9 °C 16.8 °C 1014.4 hPa West 9.7 km/h 9.7 km/h 88% 0 mm CLR
04:50 18.8 °C 16.9 °C 1014.8 hPa West 9.7 km/h 9.7 km/h 89% 0 mm CLR
04:55 18.7 °C 16.9 °C 1014.8 hPa West 9.7 km/h 9.7 km/h 89% 0 mm CLR
05:00 18.7 °C 16.9 °C 1014.8 hPa West 9.7 km/h 9.7 km/h 89% 0 mm CLR
05:05 18.7 °C 16.8 °C 1014.8 hPa West 9.7 km/h 9.7 km/h 89% 0 mm CLR
05:10 18.6 °C 16.8 °C 1014.8 hPa West 9.7 km/h 9.7 km/h 89% 0 mm CLR
05:15 18.6 °C 16.8 °C 1014.8 hPa West 4.8 km/h 9.7 km/h 89% 0 mm CLR
05:20 18.6 °C 16.7 °C 1014.8 hPa West 4.8 km/h 4.8 km/h 89% 0 mm CLR
05:25 18.5 °C 16.7 °C 1015.1 hPa West 4.8 km/h 4.8 km/h 89% 0 mm CLR
05:30 18.4 °C 16.6 °C 1015.1 hPa West 4.8 km/h 4.8 km/h 89% 0 mm CLR
05:35 18.4 °C 16.6 °C 1015.1 hPa West 4.8 km/h 4.8 km/h 89% 0 mm CLR
05:40 18.4 °C 16.6 °C 1015.1 hPa West 4.8 km/h 4.8 km/h 89% 0 mm CLR
05:45 18.3 °C 16.5 °C 1015.1 hPa West 4.8 km/h 4.8 km/h 89% 0 mm CLR
05:50 18.3 °C 16.7 °C 1015.1 hPa West 4.8 km/h 4.8 km/h 90% 0 mm CLR
05:55 18.3 °C 16.6 °C 1015.1 hPa West 4.8 km/h 4.8 km/h 90% 0 mm CLR
06:00 18.2 °C 16.6 °C 1015.1 hPa West 4.8 km/h 4.8 km/h 90% 0 mm CLR
06:05 18.2 °C 16.5 °C 1015.1 hPa West 4.8 km/h 4.8 km/h 90% 0 mm CLR
06:10 18.2 °C 16.5 °C 1015.1 hPa West 4.8 km/h 4.8 km/h 90% 0 mm CLR
06:15 18.1 °C 16.4 °C 1015.1 hPa West 8 km/h 8 km/h 90% 0 mm CLR
06:20 18.1 °C 16.4 °C 1015.1 hPa West 8 km/h 8 km/h 90% 0 mm CLR
06:25 18.1 °C 16.4 °C 1015.5 hPa West 8 km/h 8 km/h 90% 0 mm CLR
06:30 18.1 °C 16.4 °C 1015.5 hPa West 8 km/h 8 km/h 90% 0 mm CLR
06:35 18 °C 16.3 °C 1015.5 hPa West 8 km/h 8 km/h 90% 0 mm CLR
06:40 17.9 °C 16.3 °C 1015.5 hPa West 8 km/h 8 km/h 90% 0 mm CLR
06:45 17.9 °C 16.3 °C 1015.5 hPa West 8 km/h 8 km/h 90% 0 mm CLR
06:50 17.9 °C 16.2 °C 1015.5 hPa West 8 km/h 8 km/h 90% 0 mm CLR
06:55 17.9 °C 16.2 °C 1015.8 hPa West 8 km/h 8 km/h 90% 0 mm CLR
07:00 17.8 °C 16.2 °C 1015.8 hPa West 8 km/h 8 km/h 90% 0 mm CLR
07:05 17.8 °C 16.2 °C 1015.8 hPa West 8 km/h 8 km/h 90% 0 mm CLR
07:10 17.8 °C 16.2 °C 1015.8 hPa West 8 km/h 8 km/h 90% 0 mm CLR
07:15 17.8 °C 16.2 °C 1015.8 hPa WNW 4.8 km/h 8 km/h 90% 0 mm CLR
07:20 17.8 °C 16.2 °C 1015.8 hPa NW 4.8 km/h 4.8 km/h 90% 0 mm CLR
07:30 17.8 °C 16.3 °C 1015.8 hPa NW 4.8 km/h 4.8 km/h 91% 0 mm CLR
07:35 17.8 °C 16.3 °C 1015.8 hPa NW 4.8 km/h 4.8 km/h 91% 0 mm CLR
07:45 17.8 °C 16.3 °C 1016.1 hPa NW 4.8 km/h 4.8 km/h 91% 0 mm CLR
07:50 17.8 °C 16.3 °C 1016.1 hPa NW 4.8 km/h 4.8 km/h 91% 0 mm CLR
07:55 17.8 °C 16.3 °C 1016.1 hPa NW 4.8 km/h 4.8 km/h 91% 0 mm CLR
08:00 17.9 °C 16.4 °C 1016.1 hPa NW 4.8 km/h 4.8 km/h 91% 0 mm CLR
08:05 18 °C 16.5 °C 1016.5 hPa NW 4.8 km/h 4.8 km/h 91% 0 mm CLR
08:10 18.1 °C 16.6 °C 1016.5 hPa NW 4.8 km/h 4.8 km/h 91% 0 mm CLR
08:15 18.2 °C 16.5 °C 1016.5 hPa NNW 3.2 km/h 4.8 km/h 90% 0 mm FEW
08:20 18.3 °C 16.6 °C 1016.5 hPa North 3.2 km/h 3.2 km/h 90% 0 mm FEW
08:25 18.4 °C 16.7 °C 1016.5 hPa North 3.2 km/h 3.2 km/h 90% 0 mm FEW
08:30 18.5 °C 16.8 °C 1016.5 hPa North 3.2 km/h 3.2 km/h 90% 0 mm FEW
08:35 18.7 °C 16.8 °C 1016.8 hPa North 3.2 km/h 3.2 km/h 89% 0 mm FEW
08:40 18.9 °C 17 °C 1016.8 hPa North 3.2 km/h 3.2 km/h 89% 0 mm FEW
08:45 19 °C 17 °C 1016.8 hPa North 3.2 km/h 3.2 km/h 88% 0 mm FEW
08:50 19.2 °C 17.2 °C 1016.8 hPa North 3.2 km/h 3.2 km/h 88% 0 mm FEW
08:55 19.4 °C 17.3 °C 1016.8 hPa North 3.2 km/h 3.2 km/h 88% 0 mm FEW
09:00 19.6 °C 17.6 °C 1016.8 hPa North 3.2 km/h 3.2 km/h 88% 0 mm FEW
09:05 19.8 °C 17.6 °C 1016.8 hPa North 3.2 km/h 3.2 km/h 87% 0 mm FEW
09:10 20 °C 17.8 °C 1016.8 hPa North 3.2 km/h 3.2 km/h 87% 0 mm FEW
09:15 20.3 °C 17.8 °C 1016.8 hPa North 8 km/h 8 km/h 86% 0 mm FEW
09:20 20.6 °C 18.1 °C 1016.8 hPa North 8 km/h 8 km/h 86% 0 mm FEW
09:25 20.7 °C 18.1 °C 1016.8 hPa North 8 km/h 8 km/h 85% 0 mm FEW
09:30 20.9 °C 18.3 °C 1016.8 hPa North 8 km/h 8 km/h 85% 0 mm FEW
09:35 21.3 °C 18.2 °C 1016.8 hPa North 8 km/h 8 km/h 82% 0 mm FEW
09:40 21.7 °C 18.1 °C 1016.8 hPa North 8 km/h 8 km/h 80% 0 mm FEW
09:45 21.8 °C 18.3 °C 1016.8 hPa North 8 km/h 8 km/h 80% 0 mm FEW
09:50 22.1 °C 18.3 °C 1016.8 hPa North 8 km/h 8 km/h 79% 0 mm FEW
09:55 22.3 °C 18.2 °C 1016.8 hPa North 8 km/h 8 km/h 78% 0 mm FEW
10:00 22.4 °C 18 °C 1016.8 hPa North 8 km/h 8 km/h 76% 0 mm FEW
10:05 22.6 °C 18.4 °C 1016.8 hPa North 8 km/h 8 km/h 77% 0 mm FEW
10:10 22.8 °C 17.9 °C 1016.8 hPa North 8 km/h 8 km/h 74% 0 mm FEW
10:15 23 °C 18.1 °C 1017.2 hPa NE 14.5 km/h 14.5 km/h 74% 0 mm FEW
10:20 23.2 °C 18.3 °C 1017.2 hPa ENE 14.5 km/h 14.5 km/h 74% 0 mm FEW
10:25 23.3 °C 17.8 °C 1017.2 hPa ENE 14.5 km/h 14.5 km/h 71% 0 mm FEW
10:30 23.4 °C 17.7 °C 1017.2 hPa ENE 14.5 km/h 14.5 km/h 70% 0 mm FEW
10:35 23.6 °C 17.6 °C 1017.2 hPa ENE 14.5 km/h 14.5 km/h 69% 0 mm FEW
10:40 23.7 °C 17.7 °C 1017.2 hPa ENE 14.5 km/h 14.5 km/h 69% 0 mm FEW
10:45 23.9 °C 17.7 °C 1017.2 hPa ENE 14.5 km/h 14.5 km/h 68% 0 mm FEW
10:50 24.2 °C 17.2 °C 1017.2 hPa ENE 14.5 km/h 14.5 km/h 65% 0 mm FEW
11:00 24.6 °C 17.6 °C 1017.2 hPa ENE 14.5 km/h 14.5 km/h 65% 0 mm FEW
11:05 24.8 °C 17.6 °C 1017.2 hPa ENE 14.5 km/h 14.5 km/h 64% 0 mm FEW
11:10 25.1 °C 17.6 °C 1017.5 hPa ENE 14.5 km/h 14.5 km/h 63% 0 mm FEW
11:15 25.6 °C 18.1 °C 1017.2 hPa East 16.1 km/h 16.1 km/h 63% 0 mm CLR
11:20 25.8 °C 17.5 °C 1017.2 hPa East 16.1 km/h 16.1 km/h 60% 0 mm CLR
11:30 26.2 °C 18.1 °C 1017.2 hPa East 16.1 km/h 16.1 km/h 61% 0 mm CLR
11:40 26.8 °C 18.4 °C 1017.2 hPa East 16.1 km/h 16.1 km/h 60% 0 mm CLR
11:45 27.1 °C 17.8 °C 1017.2 hPa East 16.1 km/h 16.1 km/h 57% 0 mm CLR
11:50 27.1 °C 18.1 °C 1017.2 hPa East 16.1 km/h 16.1 km/h 58% 0 mm CLR
11:55 27.4 °C 18.4 °C 1016.8 hPa East 16.1 km/h 16.1 km/h 58% 0 mm CLR
12:00 27.6 °C 18 °C 1016.8 hPa East 16.1 km/h 16.1 km/h 56% 0 mm CLR
12:05 27.9 °C 18.1 °C 1016.8 hPa East 16.1 km/h 16.1 km/h 55% 0 mm CLR
12:10 27.9 °C 18.4 °C 1016.8 hPa East 16.1 km/h 16.1 km/h 56% 0 mm CLR
12:15 27.8 °C 17.4 °C 1016.8 hPa East 4.8 km/h 16.1 km/h 53% 0 mm CLR
12:20 27.6 °C 17.7 °C 1016.8 hPa ENE 4.8 km/h 4.8 km/h 55% 0 mm CLR
12:25 27.8 °C 18.2 °C 1016.8 hPa ENE 4.8 km/h 4.8 km/h 56% 0 mm CLR
12:30 28.1 °C 18.4 °C 1016.8 hPa ENE 4.8 km/h 4.8 km/h 56% 0 mm CLR
12:35 28.2 °C 18.3 °C 1016.8 hPa ENE 4.8 km/h 4.8 km/h 55% 0 mm CLR
12:40 28.2 °C 18.3 °C 1016.8 hPa ENE 4.8 km/h 4.8 km/h 55% 0 mm CLR
12:45 28.3 °C 18.2 °C 1016.8 hPa ENE 4.8 km/h 4.8 km/h 54% 0 mm CLR
12:50 28.6 °C 18.1 °C 1016.5 hPa ENE 4.8 km/h 4.8 km/h 53% 0 mm CLR
12:55 28.7 °C 18.4 °C 1016.5 hPa ENE 4.8 km/h 4.8 km/h 54% 0 mm CLR
13:00 28.8 °C 18.6 °C 1016.5 hPa ENE 4.8 km/h 4.8 km/h 54% 0 mm CLR
13:05 28.7 °C 18.1 °C 1016.5 hPa ENE 4.8 km/h 4.8 km/h 53% 0 mm CLR
13:10 28.5 °C 18.6 °C 1016.5 hPa ENE 4.8 km/h 4.8 km/h 55% 0 mm CLR
13:15 28.2 °C 18 °C 1016.1 hPa ESE 8 km/h 8 km/h 54% 0 mm CLR
13:20 27.9 °C 18.3 °C 1016.1 hPa SE 8 km/h 8 km/h 56% 0 mm CLR
13:25 28 °C 18.4 °C 1016.1 hPa SE 8 km/h 8 km/h 56% 0 mm CLR
13:30 28.1 °C 18.7 °C 1016.1 hPa SE 8 km/h 8 km/h 57% 0 mm CLR
13:35 28.1 °C 18.8 °C 1016.1 hPa SE 8 km/h 8 km/h 57% 0 mm CLR
13:40 28.3 °C 18.9 °C 1016.1 hPa SE 8 km/h 8 km/h 57% 0 mm CLR
13:45 28.4 °C 18.8 °C 1016.1 hPa SE 8 km/h 8 km/h 56% 0 mm CLR
13:50 28.7 °C 18.5 °C 1015.8 hPa SE 8 km/h 8 km/h 54% 0 mm CLR
13:55 28.9 °C 18.7 °C 1015.8 hPa SE 8 km/h 8 km/h 54% 0 mm CLR
14:00 29.1 °C 18.8 °C 1015.8 hPa SE 8 km/h 8 km/h 54% 0 mm CLR
14:05 29.3 °C 19.4 °C 1015.8 hPa SE 8 km/h 8 km/h 55% 0 mm CLR
14:10 29.6 °C 18.3 °C 1015.8 hPa SE 8 km/h 8 km/h 51% 0 mm CLR
14:15 29.6 °C 18.7 °C 1015.8 hPa East 1.6 km/h 8 km/h 52% 0 mm FEW
14:20 29.5 °C 18.6 °C 1015.8 hPa NE 1.6 km/h 1.6 km/h 52% 0 mm FEW
14:25 29.4 °C 18.8 °C 1015.8 hPa NE 1.6 km/h 1.6 km/h 53% 0 mm FEW
14:30 29.3 °C 18.8 °C 1015.8 hPa NE 1.6 km/h 1.6 km/h 53% 0 mm FEW
14:40 29.7 °C 19.3 °C 1015.5 hPa NE 1.6 km/h 1.6 km/h 54% 0 mm FEW
14:45 29.7 °C 19.1 °C 1015.5 hPa NE 1.6 km/h 1.6 km/h 53% 0 mm FEW
14:50 29.8 °C 18.9 °C 1015.5 hPa NE 1.6 km/h 1.6 km/h 52% 0 mm FEW
14:55 29.7 °C 19.1 °C 1015.5 hPa NE 1.6 km/h 1.6 km/h 53% 0 mm FEW
15:00 29.6 °C 18.7 °C 1015.5 hPa NE 1.6 km/h 1.6 km/h 52% 0 mm FEW
15:05 29.8 °C 18.8 °C 1015.5 hPa NE 1.6 km/h 1.6 km/h 52% 0 mm FEW
15:10 29.9 °C 19.3 °C 1015.5 hPa NE 1.6 km/h 1.6 km/h 53% 0 mm FEW
15:15 29.8 °C 18.9 °C 1015.1 hPa WNW 4.8 km/h 4.8 km/h 52% 0 mm FEW
15:20 29.6 °C 19.3 °C 1015.1 hPa West 4.8 km/h 4.8 km/h 54% 0 mm FEW
15:25 29.3 °C 18.5 °C 1015.1 hPa West 4.8 km/h 4.8 km/h 52% 0 mm FEW
15:30 29.2 °C 18.9 °C 1015.1 hPa West 4.8 km/h 4.8 km/h 54% 0 mm FEW
15:35 29.1 °C 18.9 °C 1015.1 hPa West 4.8 km/h 4.8 km/h 54% 0 mm FEW
15:40 29.1 °C 18.8 °C 1015.1 hPa West 4.8 km/h 4.8 km/h 54% 0 mm FEW
15:45 29.1 °C 18.5 °C 1015.1 hPa West 4.8 km/h 4.8 km/h 53% 0 mm FEW
15:50 29.1 °C 19.1 °C 1015.1 hPa West 4.8 km/h 4.8 km/h 55% 0 mm FEW
15:55 28.8 °C 19.4 °C 1015.1 hPa West 4.8 km/h 4.8 km/h 57% 0 mm FEW
16:00 28.4 °C 19.1 °C 1015.1 hPa West 4.8 km/h 4.8 km/h 57% 0 mm FEW
16:05 28.1 °C 19.8 °C 1015.1 hPa West 4.8 km/h 4.8 km/h 61% 0 mm FEW
16:10 27.8 °C 19.6 °C 1015.1 hPa West 4.8 km/h 4.8 km/h 61% 0 mm FEW
16:15 27.7 °C 19.7 °C 1015.1 hPa North 4.8 km/h 4.8 km/h 62% 0 mm SCT
16:20 27.8 °C 19.8 °C 1015.1 hPa NE 4.8 km/h 4.8 km/h 62% 0 mm SCT
16:25 28.2 °C 18.9 °C 1014.8 hPa NE 4.8 km/h 4.8 km/h 57% 0 mm SCT
16:30 28.6 °C 18.9 °C 1014.8 hPa NE 4.8 km/h 4.8 km/h 56% 0 mm SCT
16:35 28.9 °C 19.8 °C 1014.8 hPa NE 4.8 km/h 4.8 km/h 58% 0 mm SCT
16:40 29.1 °C 19.1 °C 1014.8 hPa NE 4.8 km/h 4.8 km/h 55% 0 mm SCT
16:45 29 °C 19.1 °C 1014.8 hPa NE 4.8 km/h 4.8 km/h 55% 0 mm SCT
16:50 28.8 °C 19.2 °C 1014.8 hPa NE 4.8 km/h 4.8 km/h 56% 0 mm SCT
16:55 28.7 °C 19.7 °C 1014.8 hPa NE 4.8 km/h 4.8 km/h 58% 0 mm SCT
17:00 28.6 °C 20.1 °C 1014.8 hPa NE 4.8 km/h 4.8 km/h 60% 0 mm SCT
17:05 28.4 °C 20.2 °C 1014.8 hPa NE 4.8 km/h 4.8 km/h 61% 0 mm SCT
17:10 28.3 °C 20.1 °C 1014.8 hPa NE 4.8 km/h 4.8 km/h 61% 0 mm SCT
17:15 28.3 °C 19 °C 1014.8 hPa NNE 4.8 km/h 4.8 km/h 57% 0 mm BKN
17:20 28.3 °C 19.3 °C 1014.8 hPa NNE 4.8 km/h 4.8 km/h 58% 0 mm BKN
17:25 28.3 °C 19.8 °C 1014.8 hPa NNE 4.8 km/h 4.8 km/h 60% 0 mm BKN
17:30 28.3 °C 20.1 °C 1014.8 hPa NNE 4.8 km/h 4.8 km/h 61% 0 mm BKN
17:35 28.2 °C 19.7 °C 1014.8 hPa NNE 4.8 km/h 4.8 km/h 60% 0 mm BKN
17:40 28.2 °C 19.1 °C 1014.8 hPa NNE 4.8 km/h 4.8 km/h 58% 0 mm BKN
17:45 28.2 °C 19.1 °C 1014.8 hPa NNE 4.8 km/h 4.8 km/h 58% 0 mm BKN
17:50 28.2 °C 19.4 °C 1014.8 hPa NNE 4.8 km/h 4.8 km/h 59% 0 mm BKN
17:55 28.1 °C 19.6 °C 1015.1 hPa NNE 4.8 km/h 4.8 km/h 60% 0 mm BKN
18:00 27.9 °C 19.2 °C 1015.1 hPa NNE 4.8 km/h 4.8 km/h 59% 0 mm BKN
18:05 27.8 °C 19.6 °C 1015.1 hPa NNE 4.8 km/h 4.8 km/h 61% 0 mm BKN
18:10 27.7 °C 18.9 °C 1015.1 hPa NNE 4.8 km/h 4.8 km/h 59% 0 mm BKN
18:15 27.6 °C 19.1 °C 1015.1 hPa North 8 km/h 8 km/h 60% 0 mm SCT
18:20 27.4 °C 19.2 °C 1015.1 hPa North 8 km/h 8 km/h 61% 0 mm SCT
18:25 27.2 °C 19.6 °C 1015.1 hPa North 8 km/h 8 km/h 63% 0 mm SCT
18:30 27 °C 19.6 °C 1015.1 hPa North 8 km/h 8 km/h 64% 0 mm SCT
18:40 26.6 °C 19.5 °C 1015.5 hPa North 8 km/h 8 km/h 65% 0 mm SCT
18:45 26.6 °C 19.7 °C 1015.5 hPa North 8 km/h 8 km/h 66% 0 mm SCT
18:50 26.4 °C 19.3 °C 1015.5 hPa North 8 km/h 8 km/h 65% 0 mm SCT
18:55 26.3 °C 19.7 °C 1015.5 hPa North 8 km/h 8 km/h 67% 0 mm SCT
19:00 26.2 °C 19.6 °C 1015.5 hPa North 8 km/h 8 km/h 67% 0 mm SCT
19:05 26.1 °C 19.4 °C 1015.8 hPa North 8 km/h 8 km/h 67% 0 mm SCT
19:10 26.1 °C 19.7 °C 1015.8 hPa North 8 km/h 8 km/h 68% 0 mm SCT
19:20 25.9 °C 19.3 °C 1015.8 hPa NNW 11.3 km/h 11.3 km/h 67% 0 mm SCT
19:25 25.9 °C 19.6 °C 1015.8 hPa NNW 11.3 km/h 11.3 km/h 68% 0 mm SCT
19:30 25.7 °C 19.1 °C 1016.1 hPa NNW 11.3 km/h 11.3 km/h 67% 0 mm SCT
19:40 25.4 °C 19.1 °C 1016.1 hPa NNW 11.3 km/h 11.3 km/h 68% 0 mm SCT
19:45 25.3 °C 19 °C 1016.1 hPa NNW 11.3 km/h 11.3 km/h 68% 0 mm SCT
19:50 25.2 °C 19.1 °C 1016.1 hPa NNW 11.3 km/h 11.3 km/h 69% 0 mm SCT
19:55 25.1 °C 18.9 °C 1016.1 hPa NNW 11.3 km/h 11.3 km/h 69% 0 mm SCT
20:00 24.9 °C 19.1 °C 1016.1 hPa NNW 11.3 km/h 11.3 km/h 70% 0 mm SCT
20:05 24.8 °C 18.9 °C 1016.1 hPa NNW 11.3 km/h 11.3 km/h 70% 0 mm SCT
20:10 24.7 °C 18.8 °C 1016.1 hPa NNW 11.3 km/h 11.3 km/h 70% 0 mm SCT
20:15 24.6 °C 18.9 °C 1016.5 hPa NNW 14.5 km/h 14.5 km/h 71% 0 mm SCT
20:20 24.4 °C 18.8 °C 1016.5 hPa NNW 14.5 km/h 14.5 km/h 71% 0 mm SCT
20:25 24.2 °C 18.6 °C 1016.5 hPa NNW 14.5 km/h 14.5 km/h 71% 0 mm SCT
20:30 24.1 °C 18.2 °C 1016.5 hPa NNW 14.5 km/h 14.5 km/h 70% 0 mm SCT
20:35 23.9 °C 18.4 °C 1016.5 hPa NNW 14.5 km/h 14.5 km/h 71% 0 mm SCT
20:40 23.8 °C 18.1 °C 1016.5 hPa NNW 14.5 km/h 14.5 km/h 70% 0 mm SCT
20:45 23.7 °C 18.1 °C 1016.5 hPa NNW 14.5 km/h 14.5 km/h 71% 0 mm SCT
20:50 23.6 °C 18.2 °C 1016.5 hPa NNW 14.5 km/h 14.5 km/h 72% 0 mm SCT
20:55 23.4 °C 17.8 °C 1016.5 hPa NNW 14.5 km/h 14.5 km/h 71% 0 mm SCT
21:00 23.3 °C 17.9 °C 1016.8 hPa NNW 14.5 km/h 14.5 km/h 72% 0 mm SCT
21:05 23.2 °C 17.9 °C 1016.8 hPa NNW 14.5 km/h 14.5 km/h 72% 0 mm SCT
21:10 23.2 °C 17.6 °C 1016.8 hPa NNW 14.5 km/h 14.5 km/h 71% 0 mm SCT
21:15 23.2 °C 17.6 °C 1016.8 hPa NNW 9.7 km/h 14.5 km/h 71% 0 mm FEW
21:20 23.1 °C 17.6 °C 1016.8 hPa NNW 9.7 km/h 9.7 km/h 71% 0 mm FEW
21:25 23.1 °C 17.7 °C 1016.8 hPa NNW 9.7 km/h 9.7 km/h 72% 0 mm FEW
21:30 22.9 °C 17.7 °C 1016.8 hPa NNW 9.7 km/h 9.7 km/h 72% 0 mm FEW
21:35 22.9 °C 17.4 °C 1017.2 hPa NNW 9.7 km/h 9.7 km/h 71% 0 mm FEW
21:40 22.9 °C 17.6 °C 1017.2 hPa NNW 9.7 km/h 9.7 km/h 72% 0 mm FEW
21:45 22.8 °C 17.5 °C 1017.2 hPa NNW 9.7 km/h 9.7 km/h 72% 0 mm FEW
21:50 22.7 °C 17.6 °C 1017.2 hPa NNW 9.7 km/h 9.7 km/h 73% 0 mm FEW
21:55 22.6 °C 17.5 °C 1017.2 hPa NNW 9.7 km/h 9.7 km/h 73% 0 mm FEW
22:00 22.5 °C 17.6 °C 1017.2 hPa NNW 9.7 km/h 9.7 km/h 74% 0 mm FEW
22:05 22.4 °C 17.5 °C 1017.2 hPa NNW 9.7 km/h 9.7 km/h 74% 0 mm FEW
22:10 22.3 °C 17.7 °C 1017.2 hPa NNW 9.7 km/h 9.7 km/h 75% 0 mm FEW
22:15 22.3 °C 17.6 °C 1017.2 hPa North 9.7 km/h 9.7 km/h 75% 0 mm FEW
22:20 22.2 °C 17.5 °C 1017.5 hPa North 9.7 km/h 9.7 km/h 75% 0 mm FEW
22:25 22.1 °C 17.6 °C 1017.5 hPa North 9.7 km/h 9.7 km/h 76% 0 mm FEW
22:30 21.9 °C 17.5 °C 1017.5 hPa North 9.7 km/h 9.7 km/h 76% 0 mm FEW
22:35 21.8 °C 17.4 °C 1017.5 hPa North 9.7 km/h 9.7 km/h 76% 0 mm FEW
22:40 21.7 °C 17.5 °C 1017.5 hPa North 9.7 km/h 9.7 km/h 77% 0 mm FEW
22:45 21.6 °C 17.4 °C 1017.5 hPa North 9.7 km/h 9.7 km/h 77% 0 mm FEW
22:50 21.6 °C 17.6 °C 1017.5 hPa North 9.7 km/h 9.7 km/h 78% 0 mm FEW
22:55 21.5 °C 17.5 °C 1017.5 hPa North 9.7 km/h 9.7 km/h 78% 0 mm FEW
23:00 21.4 °C 17.7 °C 1017.5 hPa North 9.7 km/h 9.7 km/h 79% 0 mm FEW
23:05 21.4 °C 17.6 °C 1017.5 hPa North 9.7 km/h 9.7 km/h 79% 0 mm FEW
23:10 21.3 °C 17.5 °C 1017.8 hPa North 9.7 km/h 9.7 km/h 79% 0 mm FEW
23:15 21.3 °C 17.7 °C 1017.8 hPa North 9.7 km/h 9.7 km/h 80% 0 mm FEW
23:20 21.2 °C 17.6 °C 1017.8 hPa North 9.7 km/h 9.7 km/h 80% 0 mm FEW
23:25 21.2 °C 17.6 °C 1017.5 hPa North 9.7 km/h 9.7 km/h 80% 0 mm FEW
23:30 21.2 °C 17.8 °C 1017.8 hPa North 9.7 km/h 9.7 km/h 81% 0 mm FEW
23:40 21.2 °C 17.8 °C 1017.8 hPa North 9.7 km/h 9.7 km/h 81% 0 mm FEW
23:45 21.2 °C 17.8 °C 1017.8 hPa North 9.7 km/h 9.7 km/h 81% 0 mm FEW
23:50 21.3 °C 17.9 °C 1017.8 hPa North 9.7 km/h 9.7 km/h 81% 0 mm FEW
23:55 21.4 °C 17.8 °C 1017.8 hPa North 9.7 km/h 9.7 km/h 80% 0 mm FEW
Piedmont Bend
Compliments of Weather Underground - 2 mb